Dalhart, TX

10:03 PM CDT on October 17, 2017 (GMT -0500)
Dalhart Municipal

Weather History for KDHT - July, 2014

Change the Weather History Date:

Monday, July 7, 2014

  Actual Average Record
Temperature  
Mean Temperature 81 °F 77 °F  
Max Temperature 97 °F 92 °F 107 °F (2016)
Min Temperature 64 °F 62 °F 55 °F (1989)
Degree Days  
Heating Degree Days 0 0  
Month to date heating degree days 0 0  
Since 1 June heating degree days 4 12  
Since 1 July heating degree days 0 0  
Cooling Degree Days 16 12  
Month to date cooling degree days 78 80  
Year to date cooling degree days 494 392  
Since 1 June cooling degree days 374 320  
Growing Degree Days 30 (Base 50)    
Moisture  
Dew Point 51 °F    
Average Humidity 48    
Maximum Humidity 78    
Minimum Humidity 18    
Precipitation  
Precipitation 0.00 in 0.08 in 1.27 in (2008)
Month to date precipitation 0.09 0.56  
Year to date precipitation 5.70 8.27  
Snow  
Snow 0.00 in 0.00 in 0.00 in ()
Month to date snowfall 0.0 0.0  
Since 1 June snowfall 0.0 0.0  
Since 1 July snowfall 0.0 0.0  
Snow Depth 0.00 in    
Sea Level Pressure  
Sea Level Pressure 29.84 in    
Wind  
Wind Speed 13 mph (SSW)    
Max Wind Speed 23 mph    
Max Gust Speed 30 mph    
Visibility 10 miles    
Events      
T = Trace of Precipitation, MM = Missing Value Source: NWS Daily Summary

Daily Weather History Graph

Daily Weather History Graph

Search for Another Location

Airport or City:

Trip Planner

Search our weather history database for the weather conditions in past years. The results will help you decide how hot, cold, wet, or windy it might be!

Date:

Astronomy

Jul. 07, 2014 Rise Set
Actual Time 6:40 AM CDT 9:09 PM CDT
Civil Twilight 6:10 AM CDT 9:39 PM CDT
Nautical Twilight 5:33 AM CDT 10:16 PM CDT
Astronomical Twilight 4:52 AM CDT 10:57 PM CDT
Moon 4:19 PM CDT (7/7) 2:29 AM CDT (7/7)
Length of Visible Light 15h 29m
Length of Day
14h 29m
Waxing Gibbous, 72% of the Moon is Illuminated
Jul 7
Waxing Gibbous
Jul 12
Full
Jul 18
Last Quarter
Jul 26
New
Aug 3
First Quarter

Hourly Weather History & Observations

Time (CDT) Temp. Heat Index Dew Point Humidity Pressure Visibility Wind Dir Wind Speed Gust Speed Precip Events Conditions
12:53 AM 73.0 °F - 53.1 °F 49% 29.90 in 10.0 mi South 11.5 mph - N/A   Clear
1:53 AM 73.9 °F - 54.0 °F 50% 29.88 in 10.0 mi South 12.7 mph - N/A   Clear
2:53 AM 70.0 °F - 55.0 °F 59% 29.88 in 10.0 mi South 10.4 mph - N/A   Clear
3:53 AM 66.9 °F - 55.9 °F 68% 29.88 in 10.0 mi SW 8.1 mph - N/A   Clear
4:53 AM 64.9 °F - 57.0 °F 75% 29.88 in 10.0 mi SW 8.1 mph - N/A   Clear
5:53 AM 66.9 °F - 55.9 °F 68% 29.87 in 10.0 mi SW 9.2 mph - N/A   Clear
6:53 AM 69.1 °F - 55.9 °F 63% 29.87 in 10.0 mi WSW 9.2 mph - N/A   Clear
7:53 AM 73.0 °F - 57.0 °F 57% 29.88 in 10.0 mi SW 5.8 mph - N/A   Clear
8:53 AM 82.0 °F 81.2 °F 53.1 °F 37% 29.87 in 10.0 mi SW 13.8 mph - N/A   Clear
9:53 AM 86.0 °F - 51.1 °F 30% 29.88 in 10.0 mi SW 16.1 mph - N/A   Clear
10:53 AM 90.0 °F - 52.0 °F 27% 29.87 in 10.0 mi WSW 16.1 mph - N/A   Clear
11:53 AM 93.0 °F - 50.0 °F 23% 29.86 in 10.0 mi SSW 13.8 mph 21.9 mph N/A   Clear
12:53 PM 93.9 °F - 46.0 °F 19% 29.85 in 10.0 mi SSW 16.1 mph 24.2 mph N/A   Clear
1:53 PM 95.0 °F - 46.9 °F 19% 29.83 in 10.0 mi SSW 16.1 mph 24.2 mph N/A   Clear
2:53 PM 96.1 °F - 48.0 °F 19% 29.82 in 10.0 mi SSW 15.0 mph 23.0 mph N/A   Clear
3:53 PM 96.1 °F - 48.0 °F 19% 29.81 in 10.0 mi SSW 13.8 mph 20.7 mph N/A   Clear
4:53 PM 96.1 °F - 48.9 °F 20% 29.79 in 10.0 mi SSW 17.3 mph 23.0 mph N/A   Clear
5:53 PM 96.1 °F - 46.9 °F 19% 29.77 in 10.0 mi South 16.1 mph 27.6 mph N/A   Clear
6:53 PM 93.9 °F - 46.9 °F 20% 29.76 in 10.0 mi South 20.7 mph - N/A   Clear
7:53 PM 91.0 °F - 46.9 °F 22% 29.77 in 10.0 mi South 16.1 mph - N/A   Clear
8:53 PM 86.0 °F - 50.0 °F 29% 29.77 in 10.0 mi South 13.8 mph - N/A   Clear
9:53 PM 80.1 °F - 51.1 °F 36% 29.81 in 10.0 mi South 10.4 mph - N/A   Clear
10:53 PM 75.9 °F - 52.0 °F 43% 29.83 in 10.0 mi South 8.1 mph - N/A   Clear
11:53 PM 70.0 °F - 53.1 °F 55% 29.85 in 10.0 mi South 9.2 mph - N/A   Clear